| time (UTC) | temp F | wind direction | speed MPH | gust MPH | rain 1hr in | rain 24hr in | rain mn in | humidity % | barometer mb |
| 20260509045034 | 55 | 333 | 9.0 | 0.0 | 0.00 | 0.00 | 0.00 | 34 | 1008.6 |
| 20260509044604 | 55 | 340 | 9.0 | 0.0 | 0.00 | 0.00 | 0.00 | 33 | 1008.6 |
| 20260509044028 | 55 | 339 | 9.0 | 0.0 | 0.00 | 0.00 | 0.00 | 34 | 1008.7 |
| 20260509043602 | 54 | 332 | 7.0 | 0.0 | 0.00 | 0.00 | 0.00 | 33 | 1008.6 |
| 20260509043027 | 55 | 355 | 6.0 | 0.0 | 0.00 | 0.00 | 0.00 | 34 | 1008.7 |
| 20260509042603 | 56 | 347 | 7.0 | 0.0 | 0.00 | 0.00 | 0.00 | 33 | 1008.7 |
| 20260509042003 | 56 | 311 | 8.0 | 0.0 | 0.00 | 0.00 | 0.00 | 32 | 1008.6 |
| 20260509041507 | 56 | 331 | 8.0 | 0.0 | 0.00 | 0.00 | 0.00 | 32 | 1008.6 |
| 20260509041017 | 55 | 11 | 8.0 | 0.0 | 0.00 | 0.00 | 0.00 | 33 | 1008.5 |
| 20260509040516 | 56 | 38 | 7.0 | 0.0 | 0.00 | 0.00 | 0.00 | 33 | 1008.4 |
| 20260509040023 | 55 | 307 | 3.0 | 0.0 | 0.00 | 0.00 | 0.00 | 33 | 1008.2 |
| 20260509035559 | 55 | 76 | 1.0 | 0.0 | 0.00 | 0.00 | 0.00 | 34 | 1008.1 |
| 20260509035004 | 55 | 76 | 1.0 | 0.0 | 0.00 | 0.00 | 0.00 | 35 | 1008.1 |
| 20260509034511 | 55 | 78 | 0.0 | 0.0 | 0.00 | 0.00 | 0.00 | 35 | 1008.1 |
| 20260509034015 | 55 | 78 | 0.0 | 0.0 | 0.00 | 0.00 | 0.00 | 36 | 1008.0 |
| 20260509033550 | 55 | 78 | 1.0 | 0.0 | 0.00 | 0.00 | 0.00 | 36 | 1008.0 |
| 20260509033027 | 55 | 78 | 2.0 | 0.0 | 0.00 | 0.00 | 0.00 | 36 | 1007.8 |
| 20260509032559 | 55 | 78 | 2.0 | 0.0 | 0.00 | 0.00 | 0.00 | 37 | 1007.8 |
| 20260509032001 | 55 | 75 | 4.0 | 0.0 | 0.00 | 0.00 | 0.00 | 36 | 1007.8 |
| 20260509031541 | 55 | 72 | 2.0 | 0.0 | 0.00 | 0.00 | 0.00 | 35 | 1007.6 |
| 20260509031014 | 56 | 92 | 1.0 | 0.0 | 0.00 | 0.00 | 0.00 | 35 | 1007.6 |
| 20260509030524 | 56 | 92 | 4.0 | 0.0 | 0.00 | 0.00 | 0.00 | 35 | 1007.4 |
| 20260509030028 | 56 | 65 | 6.0 | 0.0 | 0.00 | 0.00 | 0.00 | 34 | 1007.4 |
| 20260509025605 | 56 | 74 | 6.0 | 0.0 | 0.00 | 0.00 | 0.00 | 34 | 1007.2 |
| 20260509025040 | 58 | 74 | 3.0 | 0.0 | 0.00 | 0.00 | 0.00 | 32 | 1007.2 |
| 20260509024511 | 58 | 311 | 2.0 | 0.0 | 0.00 | 0.00 | 0.00 | 31 | 1007.3 |
| 20260509024042 | 59 | 305 | 1.0 | 0.0 | 0.00 | 0.00 | 0.00 | 31 | 1007.4 |
| 20260509023555 | 59 | 305 | 1.0 | 0.0 | 0.00 | 0.00 | 0.00 | 30 | 1007.5 |
| 20260509023034 | 59 | 305 | 0.0 | 0.0 | 0.00 | 0.00 | 0.00 | 29 | 1007.5 |
| 20260509022507 | 60 | 305 | 0.0 | 0.0 | 0.00 | 0.00 | 0.00 | 29 | 1007.2 |
| 20260509022017 | 60 | 305 | 0.0 | 0.0 | 0.00 | 0.00 | 0.00 | 29 | 1007.2 |
| 20260509021524 | 60 | 305 | 1.0 | 0.0 | 0.00 | 0.00 | 0.00 | 28 | 1007.3 |
| 20260509021005 | 60 | 305 | 3.0 | 0.0 | 0.00 | 0.00 | 0.00 | 28 | 1007.2 |
| 20260509020549 | 61 | 305 | 4.0 | 0.0 | 0.00 | 0.00 | 0.00 | 27 | 1007.2 |
| 20260509020047 | 61 | 303 | 5.0 | 0.0 | 0.00 | 0.00 | 0.00 | 27 | 1007.2 |
| 20260509015513 | 62 | 305 | 7.0 | 0.0 | 0.00 | 0.00 | 0.00 | 26 | 1007.0 |
| 20260509015057 | 62 | 307 | 9.0 | 0.0 | 0.00 | 0.00 | 0.00 | 25 | 1007.0 |
| 20260509014545 | 62 | 313 | 10.0 | 0.0 | 0.00 | 0.00 | 0.00 | 23 | 1007.0 |
| 20260509014014 | 62 | 296 | 8.0 | 0.0 | 0.00 | 0.00 | 0.00 | 24 | 1007.0 |
| 20260509013557 | 62 | 290 | 7.0 | 0.0 | 0.00 | 0.00 | 0.00 | 25 | 1007.0 |
| 20260509013002 | 63 | 296 | 6.0 | 0.0 | 0.00 | 0.00 | 0.00 | 26 | 1007.0 |
| 20260509012511 | 63 | 298 | 7.0 | 0.0 | 0.00 | 0.00 | 0.00 | 26 | 1006.9 |
| 20260509012022 | 63 | 296 | 7.0 | 0.0 | 0.00 | 0.00 | 0.00 | 25 | 1007.0 |
| 20260509011503 | 63 | 290 | 9.0 | 0.0 | 0.00 | 0.00 | 0.00 | 25 | 1007.1 |
| 20260509011046 | 64 | 281 | 10.0 | 0.0 | 0.00 | 0.00 | 0.00 | 24 | 1007.0 |
| 20260509010605 | 64 | 291 | 10.0 | 0.0 | 0.00 | 0.00 | 0.00 | 23 | 1007.1 |
| 20260509010011 | 64 | 277 | 10.0 | 0.0 | 0.00 | 0.00 | 0.00 | 24 | 1007.2 |
| 20260509005600 | 64 | 288 | 9.0 | 0.0 | 0.00 | 0.00 | 0.00 | 23 | 1007.1 |
| 20260509005040 | 64 | 286 | 11.0 | 0.0 | 0.00 | 0.00 | 0.00 | 23 | 1007.2 |
| 20260509004530 | 64 | 263 | 13.0 | 0.0 | 0.00 | 0.00 | 0.00 | 21 | 1007.3 |
| 20260509004013 | 64 | 275 | 12.0 | 0.0 | 0.00 | 0.00 | 0.00 | 20 | 1007.3 |
| 20260509003557 | 64 | 273 | 12.0 | 0.0 | 0.00 | 0.00 | 0.00 | 20 | 1007.4 |
| 20260509003010 | 64 | 292 | 13.0 | 0.0 | 0.00 | 0.00 | 0.00 | 21 | 1007.3 |
| 20260509002553 | 65 | 295 | 12.0 | 0.0 | 0.00 | 0.00 | 0.00 | 20 | 1007.4 |
| 20260509002042 | 65 | 299 | 11.0 | 0.0 | 0.00 | 0.00 | 0.00 | 20 | 1007.3 |
| 20260509001523 | 65 | 275 | 12.0 | 0.0 | 0.00 | 0.00 | 0.00 | 18 | 1007.3 |
| 20260509001005 | 65 | 275 | 13.0 | 0.0 | 0.00 | 0.00 | 0.00 | 20 | 1007.3 |
| 20260509000552 | 65 | 304 | 14.0 | 0.0 | 0.00 | 0.00 | 0.00 | 20 | 1007.2 |
| 20260509000001 | 65 | 265 | 15.0 | 0.0 | 0.00 | 0.00 | 0.00 | 21 | 1007.2 |
| 20260508235517 | 65 | 273 | 16.0 | 0.0 | 0.00 | 0.00 | 0.00 | 21 | 1007.2 |
| 20260508235006 | 65 | 266 | 16.0 | 0.0 | 0.00 | 0.00 | 0.00 | 22 | 1007.3 |
| 20260508234557 | 66 | 293 | 14.0 | 0.0 | 0.00 | 0.00 | 0.00 | 22 | 1007.2 |
| 20260508234042 | 66 | 279 | 15.0 | 0.0 | 0.00 | 0.00 | 0.00 | 23 | 1007.2 |
| 20260508233528 | 66 | 289 | 19.0 | 0.0 | 0.00 | 0.00 | 0.00 | 18 | 1007.1 |
| 20260508233011 | 66 | 276 | 19.0 | 0.0 | 0.00 | 0.00 | 0.00 | 23 | 1007.1 |
| 20260508232559 | 66 | 284 | 16.0 | 0.0 | 0.00 | 0.00 | 0.00 | 22 | 1007.0 |
| 20260508232015 | 66 | 298 | 13.0 | 0.0 | 0.00 | 0.00 | 0.00 | 22 | 1007.0 |
| 20260508231523 | 66 | 315 | 13.0 | 0.0 | 0.00 | 0.00 | 0.00 | 23 | 1007.0 |
| 20260508231016 | 66 | 286 | 11.0 | 0.0 | 0.00 | 0.00 | 0.00 | 22 | 1007.1 |
| 20260508230501 | 66 | 263 | 12.0 | 0.0 | 0.00 | 0.00 | 0.00 | 23 | 1007.1 |
| 20260508230100 | 66 | 300 | 12.0 | 0.0 | 0.00 | 0.00 | 0.00 | 24 | 1007.0 |
| 20260508225508 | 66 | 277 | 13.0 | 0.0 | 0.00 | 0.00 | 0.00 | 23 | 1007.0 |
| 20260508225024 | 66 | 292 | 12.0 | 0.0 | 0.00 | 0.00 | 0.00 | 23 | 1007.0 |
| 20260508224535 | 66 | 360 | 13.0 | 0.0 | 0.00 | 0.00 | 0.00 | 22 | 1007.0 |
| 20260508224025 | 66 | 288 | 15.0 | 0.0 | 0.00 | 0.00 | 0.00 | 21 | 1007.0 |
| 20260508223516 | 66 | 284 | 14.0 | 0.0 | 0.00 | 0.00 | 0.00 | 21 | 1007.0 |
| 20260508223004 | 66 | 292 | 13.0 | 0.0 | 0.00 | 0.00 | 0.00 | 21 | 1007.0 |
| 20260508222604 | 66 | 281 | 13.0 | 0.0 | 0.00 | 0.00 | 0.00 | 22 | 1006.9 |
| 20260508222057 | 66 | 309 | 13.0 | 0.0 | 0.00 | 0.00 | 0.00 | 20 | 1007.0 |
| 20260508221552 | 66 | 299 | 15.0 | 0.0 | 0.00 | 0.00 | 0.00 | 18 | 1007.0 |
| 20260508221001 | 67 | 290 | 16.0 | 0.0 | 0.00 | 0.00 | 0.00 | 19 | 1007.0 |
| 20260508220556 | 67 | 294 | 16.0 | 0.0 | 0.00 | 0.00 | 0.00 | 19 | 1006.9 |
| 20260508220005 | 67 | 284 | 9.0 | 0.0 | 0.00 | 0.00 | 0.00 | 18 | 1006.9 |
| 20260508215559 | 67 | 300 | 8.0 | 0.0 | 0.00 | 0.00 | 0.00 | 19 | 1007.2 |
| 20260508215010 | 68 | 296 | 11.0 | 0.0 | 0.00 | 0.00 | 0.00 | 17 | 1007.1 |
| 20260508214504 | 68 | 293 | 10.0 | 0.0 | 0.00 | 0.00 | 0.00 | 19 | 1007.2 |
| 20260508214057 | 68 | 261 | 12.0 | 0.0 | 0.00 | 0.00 | 0.00 | 19 | 1007.2 |
| 20260508213553 | 68 | 302 | 15.0 | 0.0 | 0.00 | 0.00 | 0.00 | 20 | 1007.2 |
| 20260508213004 | 68 | 303 | 10.0 | 0.0 | 0.00 | 0.00 | 0.00 | 19 | 1007.4 |
| 20260508212601 | 67 | 311 | 9.0 | 0.0 | 0.00 | 0.00 | 0.00 | 19 | 1007.5 |
| 20260508212054 | 67 | 294 | 11.0 | 0.0 | 0.00 | 0.00 | 0.00 | 18 | 1007.7 |
| 20260508211505 | 68 | 311 | 12.0 | 0.0 | 0.00 | 0.00 | 0.00 | 20 | 1007.7 |
| 20260508211058 | 67 | 360 | 13.0 | 0.0 | 0.00 | 0.00 | 0.00 | 19 | 1007.9 |
| 20260508210556 | 67 | 271 | 15.0 | 0.0 | 0.00 | 0.00 | 0.00 | 19 | 1008.0 |
| 20260508210007 | 67 | 294 | 16.0 | 0.0 | 0.00 | 0.00 | 0.00 | 18 | 1008.0 |
| 20260508205501 | 66 | 289 | 15.0 | 0.0 | 0.00 | 0.00 | 0.00 | 18 | 1008.0 |
| 20260508205104 | 67 | 286 | 15.0 | 0.0 | 0.00 | 0.00 | 0.00 | 19 | 1007.9 |
| 20260508204558 | 67 | 292 | 17.0 | 0.0 | 0.00 | 0.00 | 0.00 | 18 | 1008.1 |
| 20260508204055 | 67 | 294 | 16.0 | 0.0 | 0.00 | 0.00 | 0.00 | 19 | 1008.0 |
| 20260508203557 | 67 | 287 | 16.0 | 0.0 | 0.00 | 0.00 | 0.00 | 19 | 1008.0 |
| 20260508203106 | 67 | 323 | 17.0 | 0.0 | 0.00 | 0.00 | 0.00 | 19 | 1007.9 |
| 20260508202554 | 67 | 293 | 15.0 | 0.0 | 0.00 | 0.00 | 0.00 | 20 | 1008.0 |
| 20260508202054 | 67 | 292 | 15.0 | 0.0 | 0.00 | 0.00 | 0.00 | 21 | 1008.0 |
| 20260508201511 | 67 | 277 | 17.0 | 0.0 | 0.00 | 0.00 | 0.00 | 21 | 1008.1 |
| 20260508201010 | 67 | 277 | 13.0 | 0.0 | 0.00 | 0.00 | 0.00 | 23 | 1008.0 |
| 20260508200507 | 67 | 306 | 11.0 | 0.0 | 0.00 | 0.00 | 0.00 | 24 | 1008.1 |
| 20260508200009 | 67 | 277 | 13.0 | 0.0 | 0.00 | 0.00 | 0.00 | 23 | 1008.2 |
| 20260508195506 | 67 | 262 | 14.0 | 0.0 | 0.00 | 0.00 | 0.00 | 25 | 1008.1 |
| 20260508195009 | 67 | 280 | 13.0 | 0.0 | 0.00 | 0.00 | 0.00 | 23 | 1008.0 |
| 20260508194506 | 67 | 322 | 9.0 | 0.0 | 0.00 | 0.00 | 0.00 | 24 | 1008.2 |
| 20260508194003 | 66 | 292 | 5.0 | 0.0 | 0.00 | 0.00 | 0.00 | 23 | 1008.3 |
| 20260508193604 | 66 | 82 | 2.0 | 0.0 | 0.00 | 0.00 | 0.00 | 30 | 1008.5 |
| 20260508193105 | 65 | 39 | 2.0 | 0.0 | 0.00 | 0.00 | 0.00 | 27 | 1008.6 |
| 20260508192605 | 65 | 38 | 3.0 | 0.0 | 0.00 | 0.00 | 0.00 | 29 | 1008.7 |
| 20260508192102 | 64 | 47 | 3.0 | 0.0 | 0.00 | 0.00 | 0.00 | 33 | 1008.6 |
| 20260508191602 | 64 | 52 | 3.0 | 0.0 | 0.00 | 0.00 | 0.00 | 31 | 1008.6 |
| 20260508191048 | 64 | 271 | 5.0 | 0.0 | 0.00 | 0.00 | 0.00 | 31 | 1008.8 |
| 20260508190531 | 64 | 211 | 4.0 | 0.0 | 0.00 | 0.00 | 0.00 | 31 | 1008.7 |
| 20260508190036 | 64 | 103 | 4.0 | 0.0 | 0.00 | 0.00 | 0.00 | 35 | 1008.8 |
| 20260508185541 | 64 | 86 | 4.0 | 0.0 | 0.00 | 0.00 | 0.00 | 33 | 1008.9 |
| 20260508185036 | 64 | 112 | 5.0 | 0.0 | 0.00 | 0.00 | 0.00 | 35 | 1009.0 |
| 20260508184543 | 64 | 163 | 6.0 | 0.0 | 0.00 | 0.00 | 0.00 | 32 | 1009.0 |
| 20260508184033 | 63 | 130 | 7.0 | 0.0 | 0.00 | 0.00 | 0.00 | 35 | 1009.0 |
| 20260508183514 | 63 | 147 | 7.0 | 0.0 | 0.00 | 0.00 | 0.00 | 35 | 1009.0 |
| 20260508183014 | 64 | 129 | 5.0 | 0.0 | 0.00 | 0.00 | 0.00 | 35 | 1009.1 |
| 20260508182514 | 64 | 136 | 4.0 | 0.0 | 0.00 | 0.00 | 0.00 | 37 | 1009.3 |
| 20260508182107 | 63 | 161 | 3.0 | 0.0 | 0.00 | 0.00 | 0.00 | 35 | 1009.4 |
| 20260508181557 | 63 | 109 | 4.0 | 0.0 | 0.00 | 0.00 | 0.00 | 34 | 1009.4 |
| 20260508181033 | 63 | 175 | 5.0 | 0.0 | 0.00 | 0.00 | 0.00 | 37 | 1009.5 |
| 20260508180521 | 62 | 138 | 5.0 | 0.0 | 0.00 | 0.00 | 0.00 | 36 | 1009.5 |
| 20260508180005 | 62 | 115 | 5.0 | 0.0 | 0.00 | 0.00 | 0.00 | 36 | 1009.5 |
| 20260508175556 | 62 | 124 | 4.0 | 0.0 | 0.00 | 0.00 | 0.00 | 38 | 1009.6 |
| 20260508175041 | 62 | 248 | 2.0 | 0.0 | 0.00 | 0.00 | 0.00 | 37 | 1009.7 |
| 20260508174529 | 62 | 184 | 3.0 | 0.0 | 0.00 | 0.00 | 0.00 | 38 | 1009.8 |
| 20260508174009 | 61 | 92 | 4.0 | 0.0 | 0.00 | 0.00 | 0.00 | 37 | 1009.9 |
| 20260508173504 | 61 | 108 | 5.0 | 0.0 | 0.00 | 0.00 | 0.00 | 38 | 1009.9 |
| 20260508173059 | 61 | 82 | 4.0 | 0.0 | 0.00 | 0.00 | 0.00 | 39 | 1010.0 |
| 20260508172502 | 60 | 16 | 5.0 | 0.0 | 0.00 | 0.00 | 0.00 | 39 | 1009.9 |
| 20260508172006 | 60 | 55 | 5.0 | 0.0 | 0.00 | 0.00 | 0.00 | 39 | 1010.1 |
| 20260508171600 | 60 | 176 | 5.0 | 0.0 | 0.00 | 0.00 | 0.00 | 40 | 1010.3 |
| 20260508171054 | 60 | 123 | 5.0 | 0.0 | 0.00 | 0.00 | 0.00 | 41 | 1010.2 |
| 20260508170551 | 59 | 146 | 5.0 | 0.0 | 0.00 | 0.00 | 0.00 | 41 | 1010.2 |
| 20260508170042 | 59 | 187 | 5.0 | 0.0 | 0.00 | 0.00 | 0.00 | 41 | 1010.3 |
| 20260508165534 | 59 | 219 | 5.0 | 0.0 | 0.00 | 0.00 | 0.00 | 40 | 1010.3 |
| 20260508165023 | 60 | 215 | 5.0 | 0.0 | 0.00 | 0.00 | 0.00 | 40 | 1010.4 |
| 20260508164513 | 59 | 144 | 4.0 | 0.0 | 0.00 | 0.00 | 0.00 | 44 | 1010.5 |
| 20260508164012 | 59 | 238 | 5.0 | 0.0 | 0.00 | 0.00 | 0.00 | 41 | 1010.5 |
| 20260508163504 | 59 | 90 | 5.0 | 0.0 | 0.00 | 0.00 | 0.00 | 45 | 1010.5 |
| 20260508163105 | 59 | 132 | 5.0 | 0.0 | 0.00 | 0.00 | 0.00 | 45 | 1010.5 |
| 20260508162504 | 58 | 221 | 4.0 | 0.0 | 0.00 | 0.00 | 0.00 | 45 | 1010.5 |
| 20260508162002 | 58 | 190 | 4.0 | 0.0 | 0.00 | 0.00 | 0.00 | 47 | 1010.7 |
| 20260508161603 | 58 | 144 | 5.0 | 0.0 | 0.00 | 0.00 | 0.00 | 45 | 1010.7 |
| 20260508161106 | 57 | 202 | 5.0 | 0.0 | 0.00 | 0.00 | 0.00 | 47 | 1010.8 |
| 20260508160515 | 57 | 179 | 6.0 | 0.0 | 0.00 | 0.00 | 0.00 | 50 | 1010.8 |
| 20260508160029 | 56 | 213 | 6.0 | 0.0 | 0.00 | 0.00 | 0.00 | 50 | 1010.8 |
| 20260508155533 | 56 | 195 | 7.0 | 0.0 | 0.00 | 0.00 | 0.00 | 50 | 1010.7 |
| 20260508155032 | 55 | 219 | 8.0 | 0.0 | 0.00 | 0.00 | 0.00 | 53 | 1010.8 |
| 20260508154538 | 55 | 218 | 8.0 | 0.0 | 0.00 | 0.00 | 0.00 | 53 | 1010.9 |
| 20260508154038 | 55 | 213 | 8.0 | 0.0 | 0.00 | 0.00 | 0.00 | 54 | 1010.9 |
| 20260508153538 | 54 | 198 | 8.0 | 0.0 | 0.00 | 0.00 | 0.00 | 54 | 1011.0 |
| 20260508153057 | 54 | 191 | 7.0 | 0.0 | 0.00 | 0.00 | 0.00 | 57 | 1011.1 |
| 20260508152514 | 53 | 210 | 8.0 | 0.0 | 0.00 | 0.00 | 0.00 | 58 | 1011.2 |
| 20260508152025 | 52 | 212 | 8.0 | 0.0 | 0.00 | 0.00 | 0.00 | 58 | 1011.2 |
| 20260508151531 | 52 | 207 | 8.0 | 0.0 | 0.00 | 0.00 | 0.00 | 59 | 1011.1 |
| 20260508151036 | 51 | 202 | 9.0 | 0.0 | 0.00 | 0.00 | 0.00 | 61 | 1011.1 |
| 20260508150540 | 51 | 211 | 8.0 | 0.0 | 0.00 | 0.00 | 0.00 | 61 | 1011.2 |
| 20260508150043 | 51 | 202 | 7.0 | 0.0 | 0.00 | 0.00 | 0.00 | 63 | 1011.2 |
| 20260508145555 | 50 | 196 | 7.0 | 0.0 | 0.00 | 0.00 | 0.00 | 63 | 1011.3 |
| 20260508145102 | 49 | 196 | 6.0 | 0.0 | 0.00 | 0.00 | 0.00 | 63 | 1011.2 |
| 20260508144516 | 49 | 181 | 6.0 | 0.0 | 0.00 | 0.00 | 0.00 | 66 | 1011.3 |
| 20260508144027 | 48 | 203 | 7.0 | 0.0 | 0.00 | 0.00 | 0.00 | 67 | 1011.2 |
| 20260508143045 | 48 | 200 | 6.0 | 0.0 | 0.00 | 0.00 | 0.00 | 66 | 1011.4 |
| 20260508142604 | 47 | 160 | 5.0 | 0.0 | 0.00 | 0.00 | 0.00 | 69 | 1011.2 |
| 20260508142016 | 46 | 125 | 5.0 | 0.0 | 0.00 | 0.00 | 0.00 | 74 | 1011.4 |
| 20260508141604 | 45 | 132 | 6.0 | 0.0 | 0.00 | 0.00 | 0.00 | 75 | 1011.5 |
| 20260508141052 | 45 | 166 | 6.0 | 0.0 | 0.00 | 0.00 | 0.00 | 74 | 1011.4 |
| 20260508140516 | 44 | 167 | 5.0 | 0.0 | 0.00 | 0.00 | 0.00 | 74 | 1011.4 |
| 20260508140028 | 44 | 192 | 6.0 | 0.0 | 0.00 | 0.00 | 0.00 | 77 | 1011.3 |
| 20260508135549 | 43 | 200 | 7.0 | 0.0 | 0.00 | 0.00 | 0.00 | 76 | 1011.3 |
| 20260508135007 | 43 | 207 | 7.0 | 0.0 | 0.00 | 0.00 | 0.00 | 76 | 1011.3 |
| 20260508134542 | 42 | 193 | 6.0 | 0.0 | 0.00 | 0.00 | 0.00 | 78 | 1011.2 |
| 20260508134046 | 42 | 157 | 6.0 | 0.0 | 0.00 | 0.00 | 0.00 | 79 | 1011.3 |
| 20260508133604 | 41 | 185 | 6.0 | 0.0 | 0.00 | 0.00 | 0.00 | 80 | 1011.2 |
| 20260508133017 | 41 | 178 | 5.0 | 0.0 | 0.00 | 0.00 | 0.00 | 81 | 1011.1 |
| 20260508132536 | 40 | 194 | 5.0 | 0.0 | 0.00 | 0.00 | 0.00 | 83 | 1011.1 |
| 20260508132055 | 39 | 192 | 5.0 | 0.0 | 0.00 | 0.00 | 0.00 | 85 | 1011.1 |
| 20260508131511 | 38 | 201 | 6.0 | 0.0 | 0.00 | 0.00 | 0.00 | 85 | 1011.0 |
| 20260508131027 | 37 | 204 | 6.0 | 0.0 | 0.00 | 0.00 | 0.00 | 85 | 1011.0 |
| 20260508130542 | 37 | 204 | 4.0 | 0.0 | 0.00 | 0.00 | 0.00 | 85 | 1011.0 |
| 20260508130005 | 37 | 202 | 4.0 | 0.0 | 0.00 | 0.00 | 0.00 | 85 | 1010.9 |
| 20260508125523 | 36 | 177 | 4.0 | 0.0 | 0.00 | 0.00 | 0.00 | 85 | 1011.0 |
| 20260508125043 | 36 | 177 | 5.0 | 0.0 | 0.00 | 0.00 | 0.00 | 85 | 1010.9 |
| 20260508124505 | 36 | 177 | 5.0 | 0.0 | 0.00 | 0.00 | 0.00 | 85 | 1010.9 |
| 20260508124021 | 35 | 177 | 5.0 | 0.0 | 0.00 | 0.00 | 0.00 | 86 | 1011.0 |
| 20260508123538 | 35 | 172 | 6.0 | 0.0 | 0.00 | 0.00 | 0.00 | 86 | 1010.8 |
| 20260508123056 | 35 | 168 | 6.0 | 0.0 | 0.00 | 0.00 | 0.00 | 86 | 1010.8 |
| 20260508122509 | 35 | 165 | 7.0 | 0.0 | 0.00 | 0.00 | 0.00 | 85 | 1010.7 |
| 20260508122033 | 35 | 168 | 8.0 | 0.0 | 0.00 | 0.00 | 0.00 | 84 | 1010.8 |
| 20260508121549 | 36 | 184 | 8.0 | 0.0 | 0.00 | 0.00 | 0.00 | 84 | 1010.8 |
| 20260508121003 | 36 | 140 | 9.0 | 0.0 | 0.00 | 0.00 | 0.00 | 83 | 1010.8 |
| 20260508120522 | 36 | 190 | 9.0 | 0.0 | 0.00 | 0.00 | 0.00 | 84 | 1010.6 |
| 20260508120036 | 37 | 205 | 9.0 | 0.0 | 0.00 | 0.00 | 0.00 | 84 | 1010.5 |
| 20260508115553 | 37 | 196 | 7.0 | 0.0 | 0.00 | 0.00 | 0.00 | 85 | 1010.6 |
| 20260508115004 | 36 | 198 | 5.0 | 0.0 | 0.00 | 0.00 | 0.00 | 85 | 1010.7 |
| 20260508114522 | 36 | 172 | 6.0 | 0.0 | 0.00 | 0.00 | 0.00 | 84 | 1010.7 |
| 20260508114044 | 36 | 168 | 7.0 | 0.0 | 0.00 | 0.00 | 0.00 | 85 | 1010.7 |
| 20260508113601 | 36 | 180 | 7.0 | 0.0 | 0.00 | 0.00 | 0.00 | 85 | 1010.6 |
| 20260508113013 | 36 | 159 | 7.0 | 0.0 | 0.00 | 0.00 | 0.00 | 85 | 1010.6 |
| 20260508112527 | 36 | 142 | 7.0 | 0.0 | 0.00 | 0.00 | 0.00 | 86 | 1010.5 |
| 20260508112044 | 36 | 175 | 6.0 | 0.0 | 0.00 | 0.00 | 0.00 | 86 | 1010.5 |
| 20260508111604 | 35 | 199 | 4.0 | 0.0 | 0.00 | 0.00 | 0.00 | 86 | 1010.4 |
| 20260508111022 | 36 | 180 | 5.0 | 0.0 | 0.00 | 0.00 | 0.00 | 85 | 1010.4 |
| 20260508110540 | 36 | 183 | 6.0 | 0.0 | 0.00 | 0.00 | 0.00 | 86 | 1010.5 |
| 20260508105512 | 35 | 203 | 5.0 | 0.0 | 0.00 | 0.00 | 0.00 | 86 | 1010.4 |
| 20260508105027 | 35 | 197 | 5.0 | 0.0 | 0.00 | 0.00 | 0.00 | 86 | 1010.3 |
| 20260508104552 | 35 | 200 | 4.0 | 0.0 | 0.00 | 0.00 | 0.00 | 85 | 1010.4 |
| 20260508104004 | 35 | 194 | 5.0 | 0.0 | 0.00 | 0.00 | 0.00 | 85 | 1010.3 |
| 20260508103520 | 36 | 182 | 6.0 | 0.0 | 0.00 | 0.00 | 0.00 | 85 | 1010.4 |
| 20260508103038 | 36 | 190 | 7.0 | 0.0 | 0.00 | 0.00 | 0.00 | 85 | 1010.3 |
| 20260508102551 | 36 | 192 | 7.0 | 0.0 | 0.00 | 0.00 | 0.00 | 84 | 1010.3 |
| 20260508102005 | 37 | 190 | 8.0 | 0.0 | 0.00 | 0.00 | 0.00 | 84 | 1010.2 |
| 20260508101521 | 36 | 188 | 8.0 | 0.0 | 0.00 | 0.00 | 0.00 | 85 | 1010.2 |
| 20260508101034 | 37 | 176 | 8.0 | 0.0 | 0.00 | 0.00 | 0.00 | 85 | 1010.1 |
| 20260508100549 | 36 | 169 | 8.0 | 0.0 | 0.00 | 0.00 | 0.00 | 85 | 1010.1 |
| 20260508100105 | 36 | 177 | 8.0 | 0.0 | 0.00 | 0.00 | 0.00 | 86 | 1010.1 |
| 20260508095516 | 36 | 196 | 6.0 | 0.0 | 0.00 | 0.00 | 0.00 | 87 | 1010.0 |
| 20260508095032 | 35 | 170 | 5.0 | 0.0 | 0.00 | 0.00 | 0.00 | 86 | 1010.0 |
| 20260508094549 | 35 | 179 | 6.0 | 0.0 | 0.00 | 0.00 | 0.00 | 86 | 1010.0 |
| 20260508094003 | 36 | 170 | 6.0 | 0.0 | 0.00 | 0.00 | 0.00 | 85 | 1010.0 |
| 20260508093518 | 36 | 172 | 6.0 | 0.0 | 0.00 | 0.00 | 0.00 | 86 | 1010.0 |
| 20260508093044 | 36 | 189 | 6.0 | 0.0 | 0.00 | 0.00 | 0.00 | 86 | 1010.0 |
| 20260508092557 | 36 | 192 | 6.0 | 0.0 | 0.00 | 0.00 | 0.00 | 86 | 1010.0 |
| 20260508092011 | 36 | 191 | 6.0 | 0.0 | 0.00 | 0.00 | 0.00 | 87 | 1010.0 |
| 20260508091537 | 36 | 173 | 6.0 | 0.0 | 0.00 | 0.00 | 0.00 | 87 | 1010.0 |
| 20260508091059 | 36 | 184 | 6.0 | 0.0 | 0.00 | 0.00 | 0.00 | 87 | 1010.1 |
| 20260508090508 | 36 | 191 | 6.0 | 0.0 | 0.00 | 0.00 | 0.00 | 87 | 1009.8 |
| 20260508090037 | 36 | 184 | 5.0 | 0.0 | 0.00 | 0.00 | 0.00 | 87 | 1010.0 |
| 20260508085542 | 36 | 188 | 5.0 | 0.0 | 0.00 | 0.00 | 0.00 | 86 | 1010.0 |
| 20260508085104 | 36 | 182 | 5.0 | 0.0 | 0.00 | 0.00 | 0.00 | 86 | 1010.0 |
| 20260508084512 | 36 | 182 | 5.0 | 0.0 | 0.00 | 0.00 | 0.00 | 85 | 1009.9 |
| 20260508084028 | 36 | 181 | 6.0 | 0.0 | 0.00 | 0.00 | 0.00 | 85 | 1009.9 |
| 20260508083545 | 36 | 188 | 6.0 | 0.0 | 0.00 | 0.00 | 0.00 | 86 | 1010.0 |
| 20260508083118 | 36 | 188 | 6.0 | 0.0 | 0.00 | 0.00 | 0.00 | 86 | 1010.0 |
| 20260508082519 | 36 | 191 | 6.0 | 0.0 | 0.00 | 0.00 | 0.00 | 87 | 1009.9 |
| 20260508082037 | 36 | 193 | 6.0 | 0.0 | 0.00 | 0.00 | 0.00 | 87 | 1009.9 |
| 20260508081602 | 36 | 195 | 6.0 | 0.0 | 0.00 | 0.00 | 0.00 | 86 | 1009.9 |
| 20260508081005 | 36 | 195 | 5.0 | 0.0 | 0.00 | 0.00 | 0.00 | 86 | 1009.8 |
| 20260508080523 | 36 | 196 | 5.0 | 0.0 | 0.00 | 0.00 | 0.00 | 86 | 1009.8 |
| 20260508080043 | 36 | 195 | 4.0 | 0.0 | 0.00 | 0.00 | 0.00 | 86 | 1009.7 |
| 20260508075605 | 36 | 195 | 4.0 | 0.0 | 0.00 | 0.00 | 0.00 | 86 | 1009.6 |
| 20260508075014 | 36 | 195 | 4.0 | 0.0 | 0.00 | 0.00 | 0.00 | 86 | 1009.7 |
| 20260508074544 | 35 | 195 | 4.0 | 0.0 | 0.00 | 0.00 | 0.00 | 87 | 1009.6 |
| 20260508074049 | 35 | 195 | 4.0 | 0.0 | 0.00 | 0.00 | 0.00 | 86 | 1009.7 |
| 20260508073501 | 35 | 195 | 4.0 | 0.0 | 0.00 | 0.00 | 0.00 | 85 | 1009.3 |
| 20260508073015 | 35 | 195 | 5.0 | 0.0 | 0.00 | 0.00 | 0.00 | 85 | 1009.4 |
| 20260508072527 | 36 | 195 | 5.0 | 0.0 | 0.00 | 0.00 | 0.00 | 84 | 1009.4 |
| 20260508072046 | 36 | 195 | 6.0 | 0.0 | 0.00 | 0.00 | 0.00 | 85 | 1009.3 |
| 20260508071506 | 36 | 196 | 7.0 | 0.0 | 0.00 | 0.00 | 0.00 | 84 | 1009.3 |
| 20260508071017 | 36 | 200 | 6.0 | 0.0 | 0.00 | 0.00 | 0.00 | 83 | 1009.3 |
| 20260508070533 | 36 | 179 | 5.0 | 0.0 | 0.00 | 0.00 | 0.00 | 82 | 1009.3 |
| 20260508070048 | 37 | 188 | 5.0 | 0.0 | 0.00 | 0.00 | 0.00 | 81 | 1009.2 |
| 20260508065504 | 37 | 191 | 6.0 | 0.0 | 0.00 | 0.00 | 0.00 | 84 | 1009.1 |
| 20260508065022 | 37 | 186 | 6.0 | 0.0 | 0.00 | 0.00 | 0.00 | 85 | 1009.0 |
| 20260508064540 | 37 | 192 | 6.0 | 0.0 | 0.00 | 0.00 | 0.00 | 84 | 1009.0 |
| 20260508064055 | 37 | 185 | 5.0 | 0.0 | 0.00 | 0.00 | 0.00 | 83 | 1009.0 |
| 20260508063502 | 37 | 193 | 5.0 | 0.0 | 0.00 | 0.00 | 0.00 | 82 | 1009.0 |
| 20260508063021 | 37 | 196 | 5.0 | 0.0 | 0.00 | 0.00 | 0.00 | 82 | 1008.9 |
| 20260508062536 | 38 | 200 | 5.0 | 0.0 | 0.00 | 0.00 | 0.00 | 82 | 1008.9 |
| 20260508062051 | 38 | 201 | 6.0 | 0.0 | 0.00 | 0.00 | 0.00 | 82 | 1008.8 |
| 20260508061508 | 38 | 196 | 5.0 | 0.0 | 0.00 | 0.00 | 0.00 | 82 | 1008.8 |
| 20260508061023 | 38 | 190 | 5.0 | 0.0 | 0.00 | 0.00 | 0.00 | 82 | 1008.8 |
| 20260508060537 | 38 | 194 | 5.0 | 0.0 | 0.00 | 0.00 | 0.00 | 81 | 1008.9 |
| 20260508060050 | 38 | 194 | 6.0 | 0.0 | 0.00 | 0.00 | 0.00 | 80 | 1008.8 |
| 20260508055502 | 39 | 196 | 5.0 | 0.0 | 0.00 | 0.00 | 0.00 | 79 | 1008.8 |
| 20260508055021 | 39 | 190 | 5.0 | 0.0 | 0.00 | 0.00 | 0.00 | 78 | 1008.8 |
| 20260508054534 | 39 | 190 | 5.0 | 0.0 | 0.00 | 0.00 | 0.00 | 78 | 1008.7 |
| 20260508054052 | 40 | 186 | 5.0 | 0.0 | 0.00 | 0.00 | 0.00 | 77 | 1008.7 |
| 20260508053503 | 40 | 184 | 5.0 | 0.0 | 0.00 | 0.00 | 0.00 | 78 | 1008.7 |
| 20260508052538 | 41 | 192 | 4.0 | 0.0 | 0.00 | 0.00 | 0.00 | 73 | 1008.7 |
| 20260508052052 | 43 | 192 | 4.0 | 0.0 | 0.00 | 0.00 | 0.00 | 73 | 1008.7 |
| 20260508051504 | 43 | 199 | 4.0 | 0.0 | 0.00 | 0.00 | 0.00 | 77 | 1008.7 |
| 20260508051023 | 41 | 199 | 5.0 | 0.0 | 0.00 | 0.00 | 0.00 | 78 | 1008.6 |
| 20260508050542 | 41 | 199 | 5.0 | 0.0 | 0.00 | 0.00 | 0.00 | 80 | 1008.6 |
| 20260508050054 | 40 | 200 | 5.0 | 0.0 | 0.00 | 0.00 | 0.00 | 77 | 1008.6 |
| 20260508045605 | 41 | 190 | 4.0 | 0.0 | 0.00 | 0.00 | 0.00 | 73 | 1008.5 |